Weather History for Grove, OK

Change the Weather History Date:

Saturday, December 29, 2012

  Actual Average (KSLG) Record (KSLG)
Temperature  
Mean Temperature 28 °F -  
Max Temperature 37 °F 44 °F 64 °F (2005)
Min Temperature 19 °F 27 °F 12 °F (2000)
Degree Days  
Heating Degree Days 37    
Moisture  
Dew Point 18 °F    
Average Humidity 74    
Maximum Humidity 93    
Minimum Humidity 45    
Precipitation  
Precipitation 0.00 in - - ()
Sea Level Pressure  
Sea Level Pressure 30.31 in    
Wind  
Wind Speed 7 mph (WNW)    
Max Wind Speed 13 mph    
Max Gust Speed 18 mph    
Visibility 10 miles    
Events      
Averages and records for this station are not official NWS values.
T = Trace of Precipitation, MM = Missing Value Source: NWS Daily Summary

Daily Weather History Graph

Daily Weather History Graph

Search for Another Location

Airport:

Trip Planner

Search our weather history database for the weather conditions in past years. The results will help you decide how hot, cold, wet, or windy it might be!

Date:

Astronomy

Dec. 29, 2012 Rise Set
Actual Time 7:30 AM CST 5:12 PM CST
Civil Twilight 7:01 AM CST 5:40 PM CST
Nautical Twilight 6:29 AM CST 6:13 PM CST
Astronomical Twilight 5:58 AM CST 6:44 PM CST
Moon 6:43 PM CST (12/29) 8:07 AM CST (12/29)
Length of Visible Light 10h 39m
Length of Day
9h 41m
Full, 98% of the Moon is Illuminated
Dec 29
Full
Jan 4
Last Quarter
Jan 11
New
Jan 18
First Quarter
Jan 26
Full

Hourly Weather History & Observations

Time (CST) Temp. Windchill Dew Point Humidity Pressure Visibility Wind Dir Wind Speed Gust Speed Precip Events Conditions
12:15 AM 26.6 °F 17.5 °F 17.6 °F 69% 30.13 in 10.0 mi WNW 9.2 mph 16.1 mph N/A   Clear
12:35 AM 26.6 °F 17.5 °F 17.6 °F 69% 30.14 in 10.0 mi WNW 9.2 mph - N/A   Clear
12:55 AM 24.8 °F 14.6 °F 17.6 °F 74% 30.15 in 10.0 mi WNW 10.4 mph 16.1 mph N/A   Clear
1:15 AM 24.8 °F 13.4 °F 17.6 °F 74% 30.15 in 10.0 mi WNW 12.7 mph - N/A   Clear
1:35 AM 23.0 °F 12.4 °F 17.6 °F 80% 30.16 in 10.0 mi WNW 10.4 mph - N/A   Clear
1:55 AM 23.0 °F 11.7 °F 17.6 °F 80% 30.16 in 10.0 mi NW 11.5 mph 18.4 mph N/A   Clear
2:15 AM 23.0 °F 11.7 °F 17.6 °F 80% 30.16 in 10.0 mi WNW 11.5 mph 18.4 mph N/A   Clear
2:35 AM 23.0 °F 12.4 °F 17.6 °F 80% 30.16 in 10.0 mi WNW 10.4 mph - N/A   Clear
2:55 AM 23.0 °F 13.9 °F 17.6 °F 80% 30.18 in 10.0 mi NW 8.1 mph - N/A   Clear
3:15 AM 23.0 °F 11.7 °F 17.6 °F 80% 30.19 in 10.0 mi WNW 11.5 mph 16.1 mph N/A   Clear
3:35 AM 21.2 °F 11.7 °F 17.6 °F 86% 30.19 in 10.0 mi NW 8.1 mph - N/A   Clear
3:55 AM 21.2 °F 11.7 °F 17.6 °F 86% 30.19 in 10.0 mi WNW 8.1 mph - N/A   Clear
4:15 AM 21.2 °F 11.7 °F 17.6 °F 86% 30.20 in 10.0 mi WNW 8.1 mph - N/A   Clear
4:35 AM 21.2 °F 11.7 °F 17.6 °F 86% 30.21 in 10.0 mi WNW 8.1 mph - N/A   Clear
4:55 AM 21.2 °F 11.7 °F 17.6 °F 86% 30.21 in 10.0 mi WNW 8.1 mph - N/A   Clear
5:15 AM 21.2 °F 12.6 °F 17.6 °F 86% 30.23 in 10.0 mi West 6.9 mph - N/A   Clear
5:35 AM 21.2 °F 12.6 °F 17.6 °F 86% 30.23 in 10.0 mi WNW 6.9 mph - N/A   Clear
5:55 AM 19.4 °F 12.8 °F 17.6 °F 93% 30.25 in 10.0 mi WNW 4.6 mph - N/A   Clear
6:15 AM 19.4 °F 8.6 °F 17.6 °F 93% 30.25 in 10.0 mi WNW 9.2 mph - N/A   Clear
6:35 AM 19.4 °F 14.3 °F 17.6 °F 93% 30.26 in 10.0 mi WNW 3.5 mph - N/A   Scattered Clouds
6:55 AM 19.4 °F 10.4 °F 17.6 °F 93% 30.28 in 10.0 mi West 6.9 mph - N/A   Scattered Clouds
7:15 AM 19.4 °F 14.3 °F 17.6 °F 93% 30.28 in 10.0 mi WNW 3.5 mph - N/A   Scattered Clouds
7:35 AM 19.4 °F 12.8 °F 17.6 °F 93% 30.29 in 7.0 mi WNW 4.6 mph - N/A   Clear
7:55 AM 19.4 °F 14.3 °F 17.6 °F 93% 30.31 in 7.0 mi West 3.5 mph - N/A   Clear
8:15 AM 19.4 °F 11.5 °F 17.6 °F 93% 30.32 in 7.0 mi West 5.8 mph - N/A   Clear
8:35 AM 21.2 °F 13.6 °F 17.6 °F 86% 30.33 in 7.0 mi WNW 5.8 mph - N/A   Scattered Clouds
8:55 AM 21.2 °F 14.9 °F 17.6 °F 86% 30.33 in 7.0 mi WNW 4.6 mph - N/A   Clear
9:15 AM 23.0 °F 14.7 °F 17.6 °F 80% 30.35 in 10.0 mi WNW 6.9 mph - N/A   Clear
9:35 AM 23.0 °F 15.8 °F 19.4 °F 86% 30.36 in 10.0 mi WNW 5.8 mph - N/A   Clear
9:55 AM 23.0 °F 15.8 °F 17.6 °F 80% 30.36 in 10.0 mi West 5.8 mph - N/A   Scattered Clouds
10:15 AM 26.6 °F 19.1 °F 19.4 °F 74% 30.36 in 10.0 mi NW 6.9 mph - N/A   Clear
10:35 AM 26.6 °F 21.2 °F 19.4 °F 74% 30.36 in 10.0 mi NW 4.6 mph - N/A   Clear
10:55 AM 28.4 °F 21.2 °F 19.4 °F 69% 30.37 in 10.0 mi West 6.9 mph - N/A   Clear
11:15 AM 28.4 °F 22.2 °F 19.4 °F 69% 30.36 in 10.0 mi NW 5.8 mph - N/A   Clear
11:35 AM 30.2 °F 23.4 °F 19.4 °F 64% 30.37 in 10.0 mi West 6.9 mph - N/A   Clear
11:55 AM 32.0 °F 25.6 °F 19.4 °F 60% 30.36 in 10.0 mi West 6.9 mph - N/A   Clear
12:15 PM 32.0 °F 24.2 °F 19.4 °F 60% 30.35 in 10.0 mi WNW 9.2 mph - N/A   Clear
12:35 PM 32.0 °F 24.2 °F 19.4 °F 60% 30.34 in 10.0 mi WSW 9.2 mph - N/A   Clear
12:55 PM 32.0 °F - 19.4 °F 60% 30.33 in 10.0 mi Calm Calm - N/A   Clear
1:15 PM 32.0 °F 25.6 °F 19.4 °F 60% 30.33 in 10.0 mi West 6.9 mph - N/A   Clear
1:35 PM 33.8 °F 28.6 °F 19.4 °F 56% 30.32 in 10.0 mi WSW 5.8 mph - N/A   Clear
1:55 PM 33.8 °F 29.6 °F 19.4 °F 56% 30.32 in 10.0 mi West 4.6 mph - N/A   Clear
2:15 PM 33.8 °F 26.4 °F 19.4 °F 56% 30.33 in 10.0 mi WSW 9.2 mph - N/A   Clear
2:35 PM 35.6 °F 28.6 °F 19.4 °F 52% 30.34 in 10.0 mi WSW 9.2 mph - N/A   Clear
2:55 PM 35.6 °F 28.6 °F 19.4 °F 52% 30.34 in 10.0 mi WSW 9.2 mph - N/A   Clear
3:15 PM 35.6 °F 28.6 °F 19.4 °F 52% 30.36 in 10.0 mi WSW 9.2 mph - N/A   Clear
3:35 PM 35.6 °F 29.9 °F 17.6 °F 48% 30.36 in 10.0 mi WSW 6.9 mph - N/A   Clear
3:55 PM 37.4 °F 31.4 °F 17.6 °F 45% 30.36 in 10.0 mi West 8.1 mph - N/A   Clear
4:15 PM 35.6 °F 29.9 °F 17.6 °F 48% 30.36 in 10.0 mi WSW 6.9 mph - N/A   Clear
4:35 PM 35.6 °F 29.9 °F 19.4 °F 52% 30.36 in 10.0 mi WSW 6.9 mph - N/A   Clear
4:55 PM 33.8 °F 28.6 °F 17.6 °F 52% 30.36 in 10.0 mi WSW 5.8 mph - N/A   Clear
5:15 PM 32.0 °F 26.4 °F 19.4 °F 60% 30.36 in 10.0 mi WSW 5.8 mph - N/A   Clear
5:35 PM 32.0 °F - 19.4 °F 60% 30.37 in 10.0 mi Calm Calm - N/A   Clear
5:55 PM 32.0 °F - 19.4 °F 60% 30.37 in 10.0 mi Calm Calm - N/A   Clear
6:15 PM 32.0 °F - 19.4 °F 60% 30.37 in 10.0 mi Calm Calm - N/A   Clear
6:35 PM 28.4 °F - 19.4 °F 69% 30.37 in 10.0 mi Calm Calm - N/A   Clear
6:55 PM 28.4 °F - 19.4 °F 69% 30.37 in 10.0 mi Calm Calm - N/A   Clear
7:15 PM 28.4 °F - 17.6 °F 64% 30.37 in 10.0 mi Calm Calm - N/A   Clear
7:35 PM 28.4 °F - 19.4 °F 69% 30.38 in 10.0 mi Calm Calm - N/A   Clear
7:55 PM 26.6 °F - 17.6 °F 69% 30.38 in 10.0 mi Calm Calm - N/A   Clear
8:15 PM 26.6 °F - 17.6 °F 69% 30.38 in 10.0 mi Calm Calm - N/A   Clear
8:55 PM 23.0 °F - 17.6 °F 80% 30.38 in 10.0 mi Calm Calm - N/A   Clear
9:15 PM 24.8 °F - 17.6 °F 74% 30.38 in 10.0 mi Calm Calm - N/A   Clear
9:35 PM 23.0 °F - 17.6 °F 80% 30.39 in 10.0 mi Calm Calm - N/A   Clear
9:55 PM 21.2 °F - 17.6 °F 86% 30.39 in 10.0 mi Calm Calm - N/A   Clear
10:15 PM 21.2 °F - 17.6 °F 86% 30.39 in 10.0 mi Calm Calm - N/A   Clear
10:35 PM 21.2 °F - 17.6 °F 86% 30.39 in 10.0 mi Calm Calm - N/A   Clear
10:55 PM 21.2 °F - 17.6 °F 86% 30.40 in 10.0 mi Calm Calm - N/A   Clear
11:15 PM 21.2 °F - 17.6 °F 86% 30.40 in 10.0 mi Calm Calm - N/A   Clear
11:35 PM 21.2 °F - 19.4 °F 93% 30.42 in 10.0 mi Calm Calm - N/A   Clear
11:55 PM 21.2 °F - 19.4 °F 93% 30.41 in 10.0 mi Calm Calm - N/A   Clear